GW0458 Weather Reports


time (UTC)temp
F
wind
direction
speed
knots
gust
knots
rain 1hr
in
rain 24hr
in
rain mn
in
humidity
%
barometer
mb
20260510032815 63 211 0.0 0.0 0.00 0.00 0.00 69 1023.1
20260510025815 64 207 0.0 0.0 0.00 0.00 0.00 68 1023.4
20260510022813 67 213 0.0 0.0 0.00 0.00 0.00 61 1023.6
20260510015807 67 213 0.0 0.9 0.00 0.00 0.00 60 1023.7
20260510012806 68 216 0.0 0.9 0.00 0.00 0.00 59 1024.1
20260510005804 68 230 0.9 1.7 0.00 0.00 0.00 58 1024.7
20260510002801 68 256 0.9 1.7 0.00 0.00 0.00 57 1025.0
20260509235755 69 250 0.9 1.7 0.00 0.00 0.00 57 1025.1
20260509232753 69 244 1.7 1.7 0.00 0.00 0.00 56 1025.3
20260509225750 69 209 0.9 1.7 0.00 0.00 0.00 55 1025.9
20260509222749 68 219 0.0 0.0 0.00 0.00 0.00 59 1026.4
20260509215748 69 246 1.7 1.7 0.00 0.00 0.00 57 1026.4
20260509212746 69 237 0.9 1.7 0.00 0.00 0.00 56 1026.5
20260509205746 69 222 1.7 1.7 0.00 0.00 0.00 59 1026.7
20260509202742 69 206 0.9 0.9 0.00 0.00 0.00 56 1027.2
20260509195740 69 264 1.7 1.7 0.00 0.00 0.00 58 1027.4
20260509192737 70 275 2.6 2.6 0.00 0.00 0.00 56 1028.0
20260509185738 68 242 1.7 1.7 0.00 0.00 0.00 61 1028.4
20260509182733 67 251 1.7 1.7 0.00 0.00 0.00 61 1028.5
20260509175732 66 259 1.7 1.7 0.00 0.00 0.00 65 1028.8
20260509172732 66 200 0.9 0.9 0.00 0.00 0.00 68 1028.9
20260509165729 63 220 0.9 0.9 0.00 0.00 0.00 72 1029.0
20260509162726 61 214 0.9 0.9 0.00 0.00 0.00 75 1029.3
20260509155724 59 203 0.0 0.0 0.00 0.00 0.00 78 1029.5
20260509152721 57 232 0.9 0.9 0.00 0.00 0.00 81 1029.6
20260509145716 52 203 0.0 0.0 0.00 0.00 0.00 91 1030.1
20260509142712 49 201 0.0 0.0 0.00 0.00 0.00 95 1030.4
20260509135710 47 199 0.0 0.0 0.00 0.00 0.00 99 1030.4
20260509132706 46 174 0.0 0.9 0.00 0.00 0.00 99 1030.6
20260509125703 47 199 0.0 0.9 0.00 0.00 0.00 99 1030.1
20260509122701 48 198 0.0 0.0 0.00 0.00 0.00 99 1030.4
20260509115658 48 203 0.0 0.0 0.00 0.00 0.00 99 1030.4
20260509112655 49 206 0.0 0.0 0.00 0.00 0.00 98 1030.5
20260509105655 50 210 0.0 0.0 0.00 0.00 0.00 97 1030.6
20260509102651 51 206 0.0 0.0 0.00 0.00 0.00 94 1030.9
20260509095649 52 205 0.0 0.0 0.00 0.00 0.00 93 1031.1
20260509092644 53 206 0.0 0.0 0.00 0.00 0.00 91 1031.0
20260509085640 52 204 0.0 0.0 0.00 0.00 0.00 92 1031.3
20260509082639 51 214 0.0 0.0 0.00 0.00 0.00 92 1031.3
20260509075636 50 194 0.9 0.9 0.00 0.00 0.00 94 1031.1
20260509072634 50 208 0.0 0.0 0.00 0.00 0.00 93 1031.2
20260509065631 50 198 0.0 0.0 0.00 0.00 0.00 93 1031.0
20260509062631 49 197 0.0 0.0 0.00 0.00 0.00 93 1030.5
20260509055629 52 199 1.7 1.7 0.00 0.00 0.00 88 1030.6
20260509052624 51 198 0.0 0.0 0.00 0.00 0.00 89 1030.4
20260509045619 53 200 0.0 0.0 0.00 0.00 0.00 84 1030.5
20260509042616 53 210 0.0 0.0 0.00 0.00 0.00 83 1030.2
20260509035615 54 204 0.0 0.0 0.00 0.00 0.00 81 1029.7